Weather in Rastilkovo Maloye

Russia / Ivanovo Oblast     56°37′07″N   40°59′21″E
temp.,
°C
wind,
m/s
gust,
m/s
humid.,
%
clouds,
%
prec.,
mm/h
press.,
hPa
HPBL,
m
19 september, sun
sun1900:00+2ene2282100 0.0 102728
03:00+1ene3685100 0.0 1026116
06:00+1ene2680100 0.0 1027128
09:00+6e4764100 0.0 1027488
12:00+9e4649100 0.0 10261116
15:00+10e5644100 0.0 10251257
18:00+8ene4953100 0.0 1025414
21:00+5ene41264100 0.0 1025386
20 september, mon
mon2000:00+5ene51263100 0.0 1024479
03:00+5ene61470100 0.0 1024564
06:00+4e61471100 0.0 1024649
09:00+4e71468100 0.0 1024713
12:00+7e71362100 0.1 1023992
15:00+6e71368100 0.6 10231085
18:00+5e71484100 0.6 1023926
21:00+5e71488100 1.7 1023875
21 september, tue
tue2100:00+6e61372100 0.1 1021818
03:00+5e61475100 0.6 1020659
06:00+4e61487100 0.3 1020648
09:00+5e61492100 1.5 1019702
12:00+5ese61488100 0.3 1019675
15:00+7e61282100 0.3 1018754
18:00+7e61277100 0.0 1018668
21:00+7e51274100 0.3 1018652
22 september, wed
wed2200:00+7e51181100 0.8 1017627
03:00+6e51284100 1.5 1017629
06:00+6e51289100 2.1 1016645
09:00+5e51293100 4.1 1017650
12:00+6e41095100 0.6 1018555
15:00+7e4993100 0.8 1019495
18:00+7e3793100 0.0 1019364
21:00+7ene2697100 0.0 1019231
23 september, thu
thu2300:00+7ene1398100 0.0 1019162
03:00+7ene1399100 0.0 1018132
06:00+7ene239895 0.0 101896
09:00+10e238799 0.0 1018293
12:00+12e237772 0.0 1017647
15:00+13ese337298 0.0 1016901
18:00+11e3684100 0.0 1016446
21:00+9e3796100 0.0 1015167